Ogallala, NE

7:53 PM MDT on August 17, 2017 (GMT -0600)
Searle

Weather History for KOGA - May, 2014

Change the Weather History Date:

Monday, May 19, 2014

  Actual Average Record
Temperature  
Mean Temperature 68 °F -  
Max Temperature 85 °F 75 °F 96 °F (1970)
Min Temperature 50 °F 46 °F 32 °F (1981)
Cooling Degree Days 2    
Growing Degree Days 18 (Base 50)    
Moisture  
Dew Point 47 °F    
Average Humidity 53    
Maximum Humidity 92    
Minimum Humidity 17    
Precipitation  
Precipitation 0.00 in - - ()
Sea Level Pressure  
Sea Level Pressure 29.70 in    
Wind  
Wind Speed 10 mph (NNE)    
Max Wind Speed 29 mph    
Max Gust Speed 41 mph    
Visibility 10 miles    
Events Rain , Thunderstorm    
Averages and records for this station are not official NWS values.
T = Trace of Precipitation, MM = Missing Value Source: NWS Daily Summary

Daily Weather History Graph

Daily Weather History Graph

Search for Another Location

Airport or City:

Trip Planner

Search our weather history database for the weather conditions in past years. The results will help you decide how hot, cold, wet, or windy it might be!

Date:

Astronomy

May. 19, 2014 Rise Set
Actual Time 5:25 AM MDT 8:02 PM MDT
Civil Twilight 4:53 AM MDT 8:34 PM MDT
Nautical Twilight 4:13 AM MDT 9:14 PM MDT
Astronomical Twilight 3:29 AM MDT 9:59 PM MDT
Moon No Moon Rise 10:26 AM MDT (5/19)
Length of Visible Light 15h 40m
Length of Day
14h 37m
Waning Gibbous, 70% of the Moon is Illuminated
May 19
Waning Gibbous
May 21
Last Quarter
May 28
New
Jun 5
First Quarter
Jun 12
Full

Hourly Weather History & Observations

Time (MDT) Temp. Dew Point Humidity Pressure Visibility Wind Dir Wind Speed Gust Speed Precip Events Conditions
12:15 AM 62.8 °F 52.0 °F 68% 29.63 in 10.0 mi East 10.4 mph - N/A   Clear
12:35 AM 62.6 °F 52.2 °F 69% 29.63 in 10.0 mi ESE 6.9 mph - N/A   Clear
12:55 AM 62.4 °F 52.3 °F 70% 29.63 in 10.0 mi ESE 5.8 mph - N/A   Clear
1:15 AM 61.0 °F 52.7 °F 74% 29.62 in 10.0 mi East 5.8 mph - N/A Thunderstorm Clear
1:35 AM 60.8 °F 52.7 °F 75% 29.62 in 10.0 mi ESE 4.6 mph - N/A   Clear
1:55 AM 60.3 °F 52.7 °F 76% 29.61 in 10.0 mi SSE 8.1 mph - N/A   Clear
2:15 AM 59.9 °F 52.7 °F 77% 29.61 in 10.0 mi ESE 4.6 mph - N/A   Clear
2:35 AM 58.5 °F 52.2 °F 80% 29.61 in 10.0 mi East 4.6 mph - N/A   Clear
2:55 AM 56.1 °F 51.4 °F 84% 29.62 in 10.0 mi ENE 4.6 mph - N/A   Clear
3:35 AM 57.0 °F 52.3 °F 84% 29.61 in 10.0 mi East 5.8 mph - N/A   Clear
3:55 AM 55.9 °F 51.8 °F 86% 29.61 in 10.0 mi East 4.6 mph - N/A   Clear
4:15 AM 54.5 °F 50.4 °F 86% 29.61 in 10.0 mi Calm Calm - N/A   Clear
4:35 AM 53.6 °F 50.5 °F 89% 29.61 in 10.0 mi Calm Calm - N/A   Clear
4:55 AM 51.6 °F 48.7 °F 90% 29.62 in 10.0 mi Calm Calm - N/A   Clear
5:15 AM 50.2 °F 47.5 °F 90% 29.61 in 7.0 mi NE 5.8 mph - N/A   Clear
5:35 AM 50.2 °F 47.7 °F 91% 29.61 in 7.0 mi NNE 5.8 mph - N/A   Clear
5:55 AM 50.0 °F 47.8 °F 92% 29.63 in 5.0 mi Calm Calm - N/A   Clear
6:15 AM 50.5 °F 48.4 °F 92% 29.65 in 7.0 mi Calm Calm - N/A   Clear
6:35 AM 55.0 °F 52.7 °F 92% 29.66 in 7.0 mi WNW 3.5 mph - N/A   Clear
7:35 AM 58.8 °F 54.0 °F 84% 29.69 in 10.0 mi WNW 8.1 mph - N/A   Clear
8:35 AM 64.6 °F 54.0 °F 68% 29.70 in 10.0 mi NW 13.8 mph - N/A   Clear
8:55 AM 66.6 °F 54.1 °F 64% 29.69 in 10.0 mi NNW 13.8 mph 20.7 mph N/A   Clear
9:15 AM 67.3 °F 54.3 °F 63% 29.69 in 10.0 mi NNW 15.0 mph 19.6 mph N/A   Clear
9:35 AM 68.2 °F 54.5 °F 62% 29.69 in 10.0 mi NNW 12.7 mph 20.7 mph N/A   Clear
9:55 AM 71.2 °F 53.2 °F 53% 29.68 in 10.0 mi North 13.8 mph 19.6 mph N/A   Clear
10:15 AM 72.5 °F 52.2 °F 49% 29.68 in 10.0 mi North 18.4 mph 21.9 mph N/A   Clear
10:35 AM 74.1 °F 50.5 °F 43% 29.68 in 10.0 mi North 17.3 mph 25.3 mph N/A   Clear
10:55 AM 77.7 °F 46.6 °F 33% 29.67 in 10.0 mi NNW 21.9 mph 28.8 mph N/A   Clear
11:15 AM 78.6 °F 42.6 °F 28% 29.67 in 10.0 mi North 21.9 mph 28.8 mph N/A   Clear
11:35 AM 80.1 °F 40.6 °F 25% 29.68 in 10.0 mi North 18.4 mph 31.1 mph N/A   Clear
11:55 AM 81.0 °F 41.0 °F 24% 29.67 in 10.0 mi North 19.6 mph 25.3 mph N/A   Clear
12:15 PM 81.7 °F 40.5 °F 23% 29.67 in 10.0 mi NNE 16.1 mph 28.8 mph N/A   Clear
12:35 PM 82.9 °F 39.2 °F 21% 29.67 in 10.0 mi North 12.7 mph 23.0 mph N/A   Clear
12:55 PM 83.7 °F 38.5 °F 20% 29.68 in 10.0 mi North 15.0 mph 23.0 mph N/A   Clear
1:15 PM 84.2 °F 36.1 °F 18% 29.68 in 10.0 mi North 12.7 mph 23.0 mph N/A   Clear
1:35 PM 84.9 °F 36.1 °F 18% 29.68 in 10.0 mi NNE 15.0 mph 20.7 mph N/A   Clear
1:55 PM 84.6 °F 35.6 °F 17% 29.68 in 10.0 mi North 12.7 mph 20.7 mph N/A   Clear
2:15 PM 85.1 °F 35.1 °F 17% 29.68 in 10.0 mi NNW 9.2 mph - N/A   Clear
2:35 PM 85.5 °F 36.3 °F 17% 29.70 in 10.0 mi NNE 8.1 mph - N/A   Clear
2:55 PM 85.3 °F 37.2 °F 18% 29.69 in 10.0 mi North 9.2 mph - N/A   Clear
3:15 PM 85.1 °F 36.5 °F 18% 29.70 in 10.0 mi NNE 12.7 mph 17.3 mph N/A   Clear
3:35 PM 85.5 °F 36.5 °F 17% 29.70 in 10.0 mi North 5.8 mph - N/A   Clear
3:55 PM 85.1 °F 37.6 °F 18% 29.70 in 10.0 mi NNE 12.7 mph 17.3 mph N/A   Clear
4:15 PM 84.6 °F 37.8 °F 19% 29.70 in 10.0 mi NNE 5.8 mph 10.4 mph N/A   Clear
4:55 PM 82.6 °F 44.4 °F 26% 29.71 in 10.0 mi NNE 13.8 mph 19.6 mph N/A   Clear
5:15 PM 81.7 °F 45.1 °F 28% 29.72 in 10.0 mi NNE 15.0 mph - N/A   Clear
5:35 PM 81.5 °F 45.7 °F 28% 29.72 in 10.0 mi NE 12.7 mph 19.6 mph N/A   Clear
5:55 PM 80.6 °F 46.0 °F 30% 29.72 in 10.0 mi NNE 16.1 mph - N/A   Clear
6:15 PM 79.7 °F 46.8 °F 31% 29.72 in 10.0 mi ENE 17.3 mph 20.7 mph N/A   Clear
6:35 PM 78.3 °F 47.3 °F 34% 29.73 in 10.0 mi NE 17.3 mph 21.9 mph N/A   Clear
6:55 PM 77.0 °F 48.2 °F 36% 29.73 in 10.0 mi ENE 16.1 mph 25.3 mph N/A   Clear
7:15 PM 75.2 °F 48.2 °F 38% 29.73 in 10.0 mi ENE 17.3 mph 24.2 mph N/A   Clear
7:35 PM 73.4 °F 50.7 °F 45% 29.75 in 10.0 mi ENE 16.1 mph 21.9 mph N/A   Clear
7:55 PM 71.8 °F 50.0 °F 46% 29.75 in 10.0 mi ENE 13.8 mph 21.9 mph N/A   Clear
8:15 PM 70.5 °F 49.3 °F 47% 29.75 in 10.0 mi ENE 12.7 mph - N/A   Clear
8:35 PM 70.2 °F 49.1 °F 47% 29.79 in 10.0 mi NE 11.5 mph - N/A   Clear
8:55 PM 70.0 °F 48.6 °F 46% 29.83 in 10.0 mi NNE 17.3 mph - N/A Thunderstorm Mostly Cloudy
9:15 PM 69.4 °F 48.4 °F 47% 29.86 in 10.0 mi North 18.4 mph 24.2 mph N/A Rain , Thunderstorm Light Thunderstorms and Rain
9:35 PM 61.3 °F 52.9 °F 74% 29.78 in 7.0 mi NNE 28.8 mph 41.4 mph N/A Rain , Thunderstorm Light Thunderstorms and Rain
9:55 PM 61.5 °F 52.0 °F 71% 29.79 in 10.0 mi NE 23.0 mph 33.4 mph N/A   Clear
10:15 PM 60.8 °F 51.1 °F 70% 29.80 in 10.0 mi NE 18.4 mph 26.5 mph N/A   Clear
10:35 PM 60.8 °F 49.6 °F 67% 29.82 in 10.0 mi NE 16.1 mph 20.7 mph N/A   Clear
10:55 PM 59.9 °F 48.4 °F 66% 29.83 in 10.0 mi NE 12.7 mph - N/A   Clear
11:15 PM 59.7 °F 47.3 °F 63% 29.83 in 10.0 mi NE 8.1 mph - N/A   Clear
11:35 PM 57.9 °F 47.5 °F 68% 29.83 in 10.0 mi ENE 4.6 mph - N/A   Clear
11:55 PM 56.8 °F 47.5 °F 71% 29.84 in 10.0 mi NNE 6.9 mph - N/A   Clear